Find Kosmos-2401

NORAD ID: 27869 Int'l Des: 2003-037 Owner: KVR Country: RU operational
LEOCIRCULARPOLAR

リアルタイム位置

3D地球を読み込み中...

Kosmos-2401について

説明を読み込み中...

次回通過

Passes for default location (London). Set your location on the main map for personalized predictions.

高度履歴

Loading altitude history...

軌道要素

1 27869U 03037B 26104.96891287 -.00000026 00000-0 -25351-3 0 9997
2 27869 82.4759 5.8989 0021753 186.7842 173.2948 12.45501168 29909
Epoch: Apr 14, 2026 • Age: 5 hours

現在のステータス

高度 1469.0 km
速度 7.14 km/s
衛星直下点 1.20°N, 78.71°W
打ち上げ日 Aug 19, 2003
運用期間 22.6 years
タイプ other

技術仕様

分類 Payload
質量 225.00 kg
乾燥質量 225.00 kg
総質量 225.00 kg
長さ 1.60 m
直径 0.80 m
スパン 7.00 m
形状 Cyl + Ant
製造者 NPOPMR
バスタイプ Strela-3
フェーズステータス In Orbit
所有者/国 KVR/RU

Most Searched